Wind_Speed
56 57 58 51 56 59 53 54 61 53 46 48 42 44 41 41 44 43 43 41 37 34 32 32 31 30 27 29 29 30 31 34 41 44 39 36 34 38 39 40 46 46 42 40
55 52 48 46 47 47 43 41 38 39 40 43 42 41 39 41 41 39 37 36 35 33 31 31 31 30 28 25 25 28 32 33 36 38 43 38 37 37 41 45 47 48 48 43
50 49 47 41 40 41 41 42 38 40 40 41 40 37 34 32 31 29 29 29 29 27 27 27 26 27 25 27 27 31 33 34 36 38 39 39 38 43 46 37 36 38 43 38
47 43 42 42 42 41 43 39 41 40 40 36 37 33 26 28 28 30 31 31 28 24 20 23 25 26 28 29 32 33 36 37 37 38 41 42 41 43 33 26 27 37 36 35
45 44 45 46 40 41 38 40 38 36 36 37 37 33 29 29 28 29 29 29 29 27 27 35 31 30 25 29 32 33 36 38 41 44 46 46 46 44 45 42 43 45 43 43
47 49 46 43 41 39 38 36 36 39 41 42 38 36 34 30 30 28 27 27 28 31 35 36 35 31 32 32 33 35 37 41 45 45 46 47 47 50 54 60 48 52 53 43
43 44 43 39 38 40 38 39 40 41 42 41 40 38 35 33 29 29 30 30 30 33 38 41 43 42 38 34 37 41 45 45 42 43 46 46 49 53 57 57 57 56 57 55
42 43 40 38 37 37 38 40 41 42 41 38 36 38 35 30 32 33 33 35 37 39 40 41 44 46 43 39 38 42 47 49 52 55 56 52 48 53 51 54 52 48 52 48
39 39 37 39 39 40 41 43 38 40 41 40 41 38 37 35 36 38 41 44 48 50 49 47 48 48 43 42 44 45 48 51 53 55 57 59 59 59 61 58 57 57 58 61
33 32 34 37 38 41 40 40 43 42 41 42 41 41 45 46 45 45 48 48 52 54 53 51 51 45 43 42 45 49 52 54 57 58 59 59 60 62 65 62 57 54 52 54
42 40 39 41 42 42 42 43 38 36 38 42 46 51 51 47 52 56 54 52 50 48 51 51 49 47 49 49 51 54 55 56 57 56 55 55 56 58 60 61 62 64 64 64
45 42 41 39 40 40 43 43 41 44 46 46 50 55 52 51 56 54 53 55 55 55 53 51 54 55 56 58 57 54 53 53 52 52 53 60 61 62 64 65 66 64 61 60
46 51 50 46 43 46 47 44 47 44 45 50 52 53 51 55 57 55 57 57 54 49 50 51 52 58 60 55 53 51 56 57 58 59 59 57 57 58 58 58 58 57 57 57
54 54 55 51 49 49 48 47 49 49 53 53 54 55 57 57 57 57 56 50 48 49 50 51 51 55 55 54 55 59 61 61 64 61 60 56 53 52 53 53 52 52 53 52
51 54 56 56 59 58 58 57 55 58 59 56 54 54 55 56 53 51 47 48 47 46 48 49 55 56 60 64 64 68 70 70 62 58 57 55 53 52 52 50 49 46 44 40
62 63 64 64 63 62 60 61 61 59 59 54 56 54 59 56 52 48 47 45 45 46 51 57 60 63 61 59 59 58 58 56 53 55 54 54 53 51 48 47 43 40 39 39
54 60 64 68 60 58 62 60 57 58 55 57 59 53 52 48 46 47 45 48 50 53 56 58 57 53 52 53 53 52 53 54 55 54 53 51 47 48 46 38 37 38 40 39
72 61 67 66 64 62 63 54 56 56 56 59 54 52 48 48 49 48 50 54 55 57 58 54 52 51 50 51 51 52 53 53 52 49 48 49 48 45 42 40 38 40 42 41
64 67 64 61 58 60 59 57 65 56 56 55 57 52 45 45 48 51 57 59 61 60 59 56 53 49 49 50 49 48 49 49 49 49 50 48 47 46 40 38 38 40 43 46
62 60 57 59 59 68 63 64 54 53 55 51 52 46 47 50 52 55 61 63 63 62 61 57 53 50 48 48 47 49 48 45 43 44 44 45 42 41 41 40 43 43 45 48
63 60 59 59 66 71 61 55 49 53 52 50 50 51 55 55 59 62 63 63 62 63 60 58 57 55 55 52 49 48 48 43 38 37 37 34 34 35 43 47 46 44 46 49
64 57 62 67 66 62 57 57 53 50 52 52 54 55 58 62 63 65 66 64 63 62 60 58 56 56 59 52 50 47 45 39 35 31 35 39 39 42 45 45 43 45 47 48
62 62 61 64 64 63 62 59 55 57 59 56 55 58 62 65 66 69 68 61 60 58 60 60 58 53 52 51 47 43 40 40 36 31 33 35 36 37 38 42 44 45 46 46
51 53 54 51 51 50 52 53 56 58 61 64 66 66 67 66 66 63 60 59 61 63 63 58 55 49 49 48 45 42 40 34 32 35 37 39 39 38 40 41 42 42 42 44
40 41 44 46 47 51 53 57 63 67 68 70 68 67 67 67 67 65 63 60 59 57 52 48 47 47 47 46 43 41 39 40 43 39 39 37 36 37 38 38 38 38 39 41
40 46 52 51 54 56 57 62 68 70 69 66 64 61 59 60 59 57 54 53 55 48 43 43 43 43 43 42 38 38 37 36 32 31 34 34 34 36 37 36 33 36 32 29
Wind_Direction
266 264 268 272 270 272 278 276 275 280 280 281 285 284 283 284 288 286 287 288 288 286 286 286 285 284 279 277 282 282 280 283 279 271 269 270 252 250 248 251 258 260 261 265
263 266 268 268 272 275 276 276 278 276 275 281 279 282 283 283 283 286 288 290 288 288 288 289 290 286 283 284 285 283 279 280 279 290 281 271 273 272 262 262 260 259 258 262
262 264 265 265 267 270 272 274 274 272 272 272 276 277 278 280 282 284 287 288 289 293 298 299 296 294 290 288 282 281 283 281 283 283 282 283 287 269 266 276 275 279 267 268
260 261 266 264 264 268 271 271 269 270 270 271 273 272 272 276 281 286 289 291 294 294 304 320 314 311 307 296 292 286 283 282 281 281 282 283 287 289 268 271 280 295 285 277
261 259 260 263 268 266 266 264 266 266 267 267 272 272 265 276 281 285 288 291 291 291 301 314 312 313 302 290 288 284 282 280 279 279 282 284 283 283 274 286 293 293 291 282
262 262 263 263 263 261 261 262 264 264 266 267 274 274 268 275 279 282 286 287 290 297 305 309 311 311 302 292 283 278 273 275 274 281 285 289 289 283 283 288 288 292 288 282
261 259 259 261 256 261 264 261 261 261 266 272 273 271 271 274 280 287 288 291 297 300 304 304 304 304 302 288 280 276 273 269 271 274 279 284 285 286 283 286 286 286 288 282
262 257 258 257 256 259 259 257 257 263 269 270 266 268 275 281 285 285 286 288 293 300 303 300 297 296 295 289 277 275 269 267 269 273 277 280 278 282 285 287 290 290 287 290
259 258 254 253 259 260 258 257 258 260 261 263 269 273 278 283 288 289 287 287 292 296 296 295 292 290 287 284 277 274 274 273 271 272 274 276 281 283 287 291 291 293 292 293
246 251 255 255 258 257 257 253 250 253 261 269 273 276 284 288 289 288 290 289 288 289 290 287 287 284 281 282 278 279 278 277 278 279 279 279 279 280 283 287 288 285 284 286
245 257 260 264 263 255 247 245 254 263 263 271 277 284 291 285 288 295 293 288 288 286 286 288 286 283 285 284 285 284 281 279 279 280 281 285 287 286 285 286 286 289 290 289
260 260 260 256 253 247 241 246 251 259 269 275 281 281 283 285 291 291 289 290 292 293 294 294 290 284 286 288 288 287 284 283 283 282 280 285 288 286 286 286 288 289 290 290
263 259 259 254 247 241 242 253 262 265 272 276 279 281 283 285 286 289 290 294 294 294 290 287 283 285 287 289 290 283 282 283 285 288 288 287 286 285 286 286 286 286 286 287
261 258 255 251 255 257 259 259 262 272 274 280 277 278 282 283 286 291 295 294 291 289 289 286 284 287 284 289 286 283 282 285 293 293 291 289 286 284 283 284 286 286 287 289
253 253 256 264 265 256 264 258 257 269 281 274 279 273 276 285 288 289 291 292 292 294 299 289 287 289 283 287 284 282 286 288 290 287 285 284 284 285 287 288 288 289 286 285
255 260 264 268 261 254 257 261 273 278 281 270 270 275 280 283 282 285 287 290 293 288 284 281 284 287 286 286 285 285 284 285 284 282 281 283 285 285 285 286 288 280 279 284
253 269 261 256 254 263 271 271 278 280 270 263 271 271 275 276 280 282 280 284 288 289 287 285 286 287 287 285 283 283 282 280 277 278 279 280 281 282 284 283 278 274 277 282
262 261 252 254 263 270 276 270 276 264 255 262 267 271 274 273 279 281 279 284 288 287 290 288 288 287 286 286 284 282 279 278 278 280 280 282 284 283 283 276 275 277 279 282
257 253 251 266 267 268 269 265 266 259 261 264 270 274 277 280 280 283 284 285 287 289 287 288 288 289 289 285 282 280 280 281 280 281 282 286 285 285 278 272 278 283 288 288
246 257 268 269 266 258 257 256 256 254 255 273 276 272 278 279 278 282 283 282 282 283 286 284 280 283 298 290 284 284 283 284 285 283 286 286 282 280 278 275 278 279 286 290
262 270 268 259 249 249 249 254 252 253 269 272 268 270 275 276 277 279 282 282 281 281 282 281 283 290 299 294 286 285 283 283 287 281 287 288 285 280 278 279 278 285 286 288
266 260 244 239 239 243 247 246 258 266 265 267 269 269 270 271 275 279 280 278 278 279 281 282 285 290 295 289 282 280 281 283 286 281 276 278 279 276 276 279 282 285 289 292
240 241 239 242 246 251 255 263 269 268 268 271 271 269 268 270 273 276 278 278 278 279 280 282 285 288 285 281 278 279 277 279 281 272 274 285 282 277 279 281 286 289 292 295
240 245 251 255 259 269 275 275 271 267 268 271 273 272 271 273 275 278 281 279 277 278 281 284 284 278 279 277 275 274 276 269 273 279 279 279 279 278 281 286 289 292 294 300
261 268 274 271 271 266 267 269 269 270 271 272 275 278 281 283 281 279 278 275 275 276 278 280 280 279 279 278 278 278 277 271 272 277 275 277 281 286 287 288 291 297 300 303
264 259 256 260 263 264 267 269 269 270 274 279 280 279 279 278 277 277 276 272 269 272 275 275 275 275 276 278 281 281 276 272 271 278 276 275 285 287 288 291 293 299 304 302
Height
5796 5798 5802 5804 5802 5802 5804 5805 5808 5809 5807 5808 5809 5810 5810 5809 5809 5808 5809 5808 5807 5807 5804 5803 5803 5800 5799 5798 5797 5796 5794 5791 5787 5782 5779 5779 5776 5776 5776 5775 5776 5777 5777 5778
5787 5789 5791 5791 5793 5794 5795 5796 5798 5799 5798 5799 5799 5801 5801 5800 5799 5799 5798 5798 5797 5796 5795 5795 5795 5794 5792 5791 5790 5788 5785 5784 5780 5779 5777 5774 5772 5771 5768 5766 5766 5766 5765 5767
5776 5779 5782 5782 5783 5785 5787 5788 5788 5789 5789 5789 5791 5793 5792 5792 5792 5791 5791 5790 5790 5789 5788 5788 5787 5787 5786 5785 5783 5780 5779 5778 5775 5771 5771 5768 5766 5761 5759 5759 5759 5758 5758 5758
5767 5770 5772 5774 5774 5776 5778 5779 5778 5780 5781 5783 5783 5786 5787 5785 5785 5785 5785 5785 5785 5785 5784 5784 5783 5781 5780 5779 5778 5775 5771 5769 5767 5764 5762 5760 5760 5759 5753 5751 5752 5752 5751 5749
5759 5759 5762 5764 5767 5766 5770 5768 5772 5772 5773 5774 5775 5777 5781 5778 5778 5779 5779 5779 5780 5779 5780 5779 5777 5775 5773 5772 5770 5767 5765 5762 5759 5756 5754 5753 5753 5753 5752 5742 5745 5745 5744 5742
5748 5750 5754 5757 5757 5758 5760 5763 5764 5764 5763 5766 5769 5769 5773 5771 5770 5770 5772 5772 5772 5772 5772 5771 5770 5769 5767 5764 5762 5759 5756 5753 5751 5749 5747 5745 5745 5743 5740 5736 5733 5734 5733 5732
5740 5742 5744 5747 5748 5749 5753 5755 5755 5754 5754 5758 5760 5759 5764 5762 5763 5763 5762 5762 5761 5761 5761 5761 5760 5759 5758 5756 5753 5751 5748 5744 5741 5739 5737 5736 5734 5732 5729 5728 5724 5722 5720 5720
5729 5733 5735 5738 5739 5742 5743 5745 5745 5745 5747 5749 5749 5750 5754 5755 5755 5755 5754 5753 5752 5752 5751 5751 5750 5748 5746 5745 5744 5741 5738 5734 5730 5726 5724 5723 5721 5719 5716 5713 5712 5710 5708 5707
5719 5721 5725 5727 5730 5731 5733 5733 5738 5735 5736 5737 5739 5744 5744 5745 5744 5745 5746 5746 5744 5742 5741 5739 5736 5735 5733 5732 5731 5729 5727 5723 5721 5717 5713 5709 5706 5705 5702 5699 5697 5694 5693 5692
5708 5711 5715 5717 5719 5720 5723 5727 5724 5723 5727 5727 5729 5731 5733 5734 5733 5734 5735 5735 5733 5731 5729 5727 5725 5723 5720 5719 5717 5716 5713 5710 5707 5703 5700 5697 5695 5693 5690 5687 5684 5683 5681 5678
5696 5700 5706 5707 5708 5711 5713 5715 5716 5717 5717 5717 5718 5720 5721 5720 5720 5722 5722 5721 5720 5717 5716 5715 5713 5711 5710 5707 5704 5703 5700 5697 5694 5691 5688 5685 5683 5680 5677 5674 5670 5667 5664 5663
5689 5689 5692 5696 5699 5700 5701 5704 5705 5704 5709 5708 5706 5709 5709 5707 5707 5707 5709 5708 5707 5704 5702 5700 5699 5698 5696 5694 5690 5688 5685 5682 5680 5679 5677 5674 5671 5667 5663 5659 5656 5652 5649 5646
5680 5678 5682 5685 5688 5690 5693 5697 5697 5697 5697 5695 5697 5698 5698 5696 5694 5696 5696 5696 5693 5692 5690 5689 5686 5686 5683 5680 5677 5675 5673 5671 5667 5665 5662 5659 5656 5652 5648 5645 5641 5638 5635 5632
5664 5666 5672 5676 5682 5683 5683 5687 5687 5684 5682 5686 5687 5689 5685 5683 5683 5683 5681 5682 5682 5681 5680 5678 5676 5673 5670 5668 5664 5661 5657 5654 5650 5646 5644 5640 5638 5636 5633 5630 5628 5624 5621 5618
5652 5655 5660 5664 5668 5668 5672 5674 5674 5672 5673 5670 5677 5676 5672 5671 5671 5669 5667 5667 5667 5667 5665 5664 5663 5662 5659 5656 5653 5648 5643 5639 5635 5633 5630 5626 5623 5619 5617 5615 5612 5610 5607 5604
5640 5642 5647 5648 5652 5654 5655 5657 5658 5659 5657 5656 5660 5662 5658 5656 5656 5657 5656 5655 5655 5654 5654 5652 5648 5645 5641 5639 5636 5632 5628 5624 5622 5619 5615 5611 5608 5605 5603 5602 5600 5598 5595 5593
5632 5633 5635 5633 5637 5637 5636 5644 5644 5643 5643 5646 5646 5655 5648 5644 5644 5645 5644 5642 5641 5640 5638 5635 5631 5626 5623 5621 5619 5616 5613 5609 5606 5604 5601 5598 5595 5593 5591 5589 5587 5586 5584 5581
5618 5622 5619 5619 5621 5614 5623 5628 5629 5627 5629 5630 5634 5638 5638 5634 5631 5630 5630 5631 5630 5626 5622 5619 5616 5612 5609 5606 5604 5601 5599 5596 5593 5590 5588 5586 5583 5581 5579 5576 5575 5573 5570 5567
5605 5607 5605 5603 5603 5603 5605 5616 5618 5616 5618 5617 5621 5620 5622 5620 5619 5618 5617 5616 5613 5610 5607 5605 5603 5600 5597 5595 5592 5588 5586 5583 5579 5577 5575 5572 5570 5568 5566 5564 5562 5560 5557 5554
5588 5589 5593 5587 5589 5589 5599 5605 5602 5597 5600 5605 5605 5605 5605 5606 5605 5607 5603 5601 5598 5596 5593 5590 5589 5587 5584 5582 5578 5575 5572 5569 5567 5564 5562 5559 5557 5555 5555 5553 5551 5548 5545 5541
5574 5574 5576 5576 5576 5578 5587 5589 5586 5585 5597 5594 5593 5593 5594 5595 5594 5592 5588 5585 5582 5579 5577 5574 5573 5571 5570 5568 5565 5562 5559 5556 5554 5553 5551 5549 5547 5545 5544 5542 5539 5536 5532 5528
5560 5563 5565 5564 5564 5568 5573 5572 5575 5575 5573 5577 5579 5578 5578 5577 5574 5571 5568 5567 5566 5565 5563 5561 5559 5557 5554 5553 5551 5549 5547 5545 5543 5542 5540 5539 5537 5534 5532 5530 5527 5524 5520 5516
5547 5550 5552 5555 5556 5556 5556 5556 5559 5559 5559 5560 5562 5562 5560 5559 5557 5555 5552 5550 5549 5548 5546 5546 5545 5542 5540 5538 5538 5538 5537 5535 5534 5532 5530 5529 5526 5524 5521 5519 5516 5512 5507 5502
5534 5537 5537 5540 5544 5542 5543 5545 5544 5542 5541 5540 5541 5539 5539 5541 5540 5539 5538 5535 5533 5531 5529 5528 5529 5527 5527 5526 5525 5525 5525 5524 5523 5522 5519 5517 5515 5513 5511 5508 5504 5500 5496 5490
5522 5521 5524 5523 5526 5528 5530 5528 5525 5522 5523 5523 5521 5524 5525 5524 5522 5520 5519 5521 5518 5516 5514 5514 5514 5514 5513 5514 5514 5513 5513 5512 5511 5510 5508 5507 5505 5503 5501 5497 5494 5490 5486 5479
5507 5505 5504 5510 5511 5512 5514 5510 5507 5506 5506 5507 5506 5505 5503 5503 5503 5502 5503 5502 5502 5501 5501 5501 5501 5501 5502 5502 5502 5501 5500 5499 5499 5498 5497 5497 5495 5493 5490 5487 5484 5482 5477 5472